Weather History for Evansville, IN

Change the Weather History Date:

Monday, March 26, 2012

  Actual Average Record
Temperature  
Mean Temperature 62 °F 49 °F  
Max Temperature 73 °F 61 °F 80 °F (1991)
Min Temperature 50 °F 38 °F 10 °F (1955)
Degree Days  
Heating Degree Days 3 16  
Month to date heating degree days 210 516  
Since 1 July heating degree days 3239 4090  
Cooling Degree Days 0 0  
Month to date cooling degree days 43 0  
Year to date cooling degree days 43 0  
Growing Degree Days 11 (Base 50)    
Moisture  
Dew Point 45 °F    
Average Humidity 68    
Maximum Humidity 100    
Minimum Humidity 35    
Precipitation  
Precipitation 0.00 in 0.15 in 2.94 in (1949)
Month to date precipitation 2.19 3.51  
Year to date precipitation 7.33 9.78  
Snow  
Snow 0.00 in 0.00 in 0.30 in (1978)
Month to date snowfall T 0.9  
Since 1 July snowfall 0.5 11.6  
Snow Depth 0.00 in    
Sea Level Pressure  
Sea Level Pressure 30.14 in    
Wind  
Wind Speed 6 mph (NE)    
Max Wind Speed 15 mph    
Max Gust Speed 18 mph    
Visibility 8 miles    
Events      
T = Trace of Precipitation, MM = Missing Value Source: NWS Daily Summary

Daily Weather History Graph

Daily Weather History Graph

Search for Another Location

Airport:

Trip Planner

Search our weather history database for the weather conditions in past years. The results will help you decide how hot, cold, wet, or windy it might be!

Date:

Astronomy

Mar. 26, 2012 Rise Set
Actual Time 6:43 AM CDT 7:08 PM CDT
Civil Twilight 6:17 AM CDT 7:34 PM CDT
Nautical Twilight 5:46 AM CDT 8:05 PM CDT
Astronomical Twilight 5:14 AM CDT 8:37 PM CDT
Moon 8:36 AM CDT (3/26) 11:13 PM CDT (3/26)
Length of Visible Light 13h 17m
Length of Day
12h 24m
Waxing Crescent, 15% of the Moon is Illuminated
Mar 26
Waxing Crescent
Mar 30
First Quarter
Apr 6
Full
Apr 13
Last Quarter
Apr 21
New

Hourly Weather History & Observations

Time (CDT) Temp. Dew Point Humidity Pressure Visibility Wind Dir Wind Speed Gust Speed Precip Events Conditions
12:54 AM 54.0 °F 51.1 °F 90% 30.06 in 7.0 mi Calm Calm - N/A   Clear
1:54 AM 54.0 °F 52.0 °F 93% 30.06 in 7.0 mi Calm Calm - N/A   Clear
2:54 AM 51.8 °F 51.8 °F 100% 30.06 in 5.0 mi Calm Calm - N/A   Clear
3:54 AM 51.1 °F 50.0 °F 96% 30.06 in 4.0 mi Calm Calm - N/A   Clear
4:19 AM 51.8 °F 48.2 °F 88% 30.07 in 2.0 mi Calm Calm - N/A   Clear
4:30 AM 50.0 °F 48.2 °F 94% 30.08 in 5.0 mi NNE 3.5 mph - N/A   Clear
4:54 AM 50.0 °F 48.9 °F 96% 30.09 in 5.0 mi Calm Calm - N/A   Clear
5:54 AM 51.1 °F 50.0 °F 96% 30.11 in 6.0 mi Calm Calm - N/A   Partly Cloudy
6:54 AM 53.1 °F 50.0 °F 89% 30.13 in 6.0 mi NNE 4.6 mph - N/A   Clear
7:54 AM 57.0 °F 50.0 °F 77% 30.17 in 10.0 mi NNE 8.1 mph - N/A   Mostly Cloudy
8:54 AM 57.9 °F 48.9 °F 72% 30.19 in 10.0 mi NE 11.5 mph - N/A   Scattered Clouds
9:54 AM 62.1 °F 45.0 °F 53% 30.21 in 10.0 mi NE 11.5 mph 18.4 mph N/A   Clear
10:54 AM 66.0 °F 43.0 °F 43% 30.20 in 10.0 mi ENE 9.2 mph - N/A   Clear
11:54 AM 69.1 °F 43.0 °F 39% 30.19 in 10.0 mi NE 10.4 mph 16.1 mph N/A   Clear
12:54 PM 71.1 °F 43.0 °F 36% 30.18 in 10.0 mi ENE 9.2 mph - N/A   Clear
1:54 PM 72.0 °F 43.0 °F 35% 30.17 in 10.0 mi Variable 5.8 mph - N/A   Clear
2:54 PM 72.0 °F 43.0 °F 35% 30.16 in 10.0 mi North 5.8 mph - N/A   Clear
3:54 PM 72.0 °F 44.1 °F 37% 30.15 in 10.0 mi ENE 6.9 mph - N/A   Clear
4:54 PM 72.0 °F 45.0 °F 38% 30.14 in 10.0 mi NNE 9.2 mph - N/A   Clear
5:54 PM 69.1 °F 45.0 °F 42% 30.14 in 10.0 mi NE 6.9 mph - N/A   Clear
6:54 PM 63.0 °F 39.0 °F 41% 30.15 in 10.0 mi ENE 6.9 mph - N/A   Clear
7:54 PM 59.0 °F 36.0 °F 42% 30.17 in 10.0 mi ENE 5.8 mph - N/A   Clear
8:54 PM 57.9 °F 37.9 °F 47% 30.19 in 10.0 mi NE 8.1 mph - N/A   Clear
9:54 PM 55.9 °F 41.0 °F 57% 30.20 in 10.0 mi ENE 8.1 mph - N/A   Clear
10:54 PM 54.0 °F 37.9 °F 55% 30.20 in 10.0 mi ENE 8.1 mph - N/A   Clear
11:54 PM 53.1 °F 37.0 °F 55% 30.20 in 10.0 mi ENE 5.8 mph - N/A   Clear